Hourly Data Report for July 28, 2021

BONAVISTA
NEWFOUNDLAND
Current Station Operator: ECCC - MSC

48°40'02.000" N
53°06'51.000" W
25.60 m
8400601
71178
AVA

Download Data

Hourly Data (July 2021)
Hourly Data Report for July 28, 2021
TIME
LST
Temp Definition
°C
Dew Point Definition
°C
Rel Hum Definition
%
Precip. Amount Definition
mm

Wind Dir Definition
10's deg

Wind Spd Definition
km/h
Visibility Definition
km
Stn Press Definition
kPa
Hmdx Definition


Wind Chill Definition


Weather Definition


00:30 17.2 16.1 93 0.0 21 30   100.84     LegendNANA
01:30 17.9 16.3 90 0.0 21 29   100.80     LegendNANA
02:30 17.8 16.2 91 0.0 20 16   100.82     LegendNANA
03:30 17.3 16.0 92 0.0 21 22   100.87     LegendNANA
04:30 17.2 16.0 93 0.0 20 20   100.90     LegendNANA
05:30 16.9 15.9 94 0.0 17 7   100.96     LegendNANA
06:30 18.2 16.4 89 0.0 21 21   100.92     LegendNANA
07:30 19.4 16.5 83 0.0 22 31   100.92     LegendNANA
08:30 20.2 16.8 81 0.0 22 24   100.94 25   LegendNANA
09:30 22.9 18.1 74 0.0 21 24   100.93 29   LegendNANA
10:30 22.9 18.0 74 0.0 21 26   100.93 29   LegendNANA
11:30 23.0 18.3 75 0.0 20 29   100.91 29   LegendNANA
12:30 25.0 17.7 64 0.0 21 24   100.86 31   LegendNANA
13:30 25.8 18.2 63 0.0 21 26   100.81 32   LegendNANA
14:30 25.0 17.3 62 0.0 21 33   100.78 30   LegendNANA
15:30 24.6 17.1 63 0.0 21 33   100.74 30   LegendNANA
16:30 24.6 18.3 68 0.0 20 29   100.75 31   LegendNANA
17:30 23.5 18.1 72 0.0 20 34   100.72 30   LegendNANA
18:30 22.5 18.3 77 0.0 20 23   100.69 29   LegendNANA
19:30 20.8 18.5 87 0.0 20 30   100.69 27   LegendNANA
20:30 20.1 18.5 90 0.0 19 16   100.71 26   LegendNANA
21:30 19.4 18.0 92 0.0 20 30   100.71     LegendNANA
22:30 18.6 17.3 92 0.0 20 21   100.68     LegendNANA
23:30 18.3 17.2 93 0.0 21 28   100.63     LegendNANA

Notes on Data Quality.

Legend

  • E = Estimated
  • M = Missing
  • NA = Not Available*
  • [empty] = Indicates an unobserved value
Date modified: